Weather in Kayly

Russia / Novosibirsk Oblast     55°17′44″N   84°05′11″E
temp.,
°C
wind,
m/s
gust,
m/s
humid.,
%
clouds,
%
prec.,
mm/h
press.,
hPa
HPBL,
m
28 february, sun
sun2801:00−28sw349893 0.0 103964
04:00−30ssw339750 0.0 103944
07:00−30s239642 0.0 104023
10:00−27s269550 0.0 1039169
13:00−20sse369061 0.0 1036367
16:00−16sse368770 0.0 1033501
19:00−18se339285 0.0 103036
22:00−16se3796100 0.2 1027213
1 march, mon
mon101:00−14ese3696100 0.5 1024189
04:00−12ese4795100 0.3 1020202
07:00−10ese4795100 0.9 1017262
10:00−8se4895100 1.1 1014465
13:00−5se4795100 2.1 1011497
16:00−3ese5897100 2.9 1009445
19:00−1nw1698100 8.2 1008312
22:00−7nne5797100 2.9 1008177
2 march, tue
tue201:00−10nne4795100 4.8 1009234
04:00−13n3795100 0.2 1011216
07:00−15nne249696 0.3 1014130
10:00−16nne239682 0.1 1016120
13:00−13nnw118990 0.3 1018288
16:00−11nw2288100 0.1 1018348
19:00−13ne1296100 0.2 101821
22:00−13ese129695 0.1 101822
3 march, wed
wed301:00−15sse119697 0.2 101720
04:00−14sse1196100 0.1 101620
07:00−14ese1296100 0.3 101620
10:00−12e2395100 0.2 1016157
13:00−9ese1289100 0.5 1016326
16:00−8wnw1190100 0.3 1017305
19:00−10wsw4695100 0.7 1019207
22:00−14sw349678 0.1 102290
4 march, thu
thu401:00−16sw369780 0.1 1024112
04:00−19ssw339872 0.0 102525
07:00−20s349775 0.0 102755
10:00−18s479375 0.0 1026243
13:00−11sse488975 0.0 1025459
16:00−8s578796 0.0 1024610
19:00−9se489198 0.0 1022259
22:00−11se4892100 0.0 1020140